• Join FlightAware (Why Join?)
  • Login
  • US Flag 
05:21PM EST


 

Airport Tracker/Info


-or-


 

Live Flight TrackerFlight Track Log ✈ AAY842 ✈ 04-Apr-2014 ✈ KPIE - KSYR

Flight Track Log - Related Links

Times and Time Zones

All times are in EDT time to prevent confusion due to time zone crossing. See the AAY842 flight status page for this flight to view local times or setup timezone preferences in your user account.

Time Position Orientation Groundspeed Altitude Reporting Facility
EDT Latitude Longitude Course Direction KTS MPH feet Rate Location/Type
05:40PM 27.9000 -82.6833 180° South 168 193 800  Level Tampa TRACON
05:41PM 27.8333 -82.6833 180° South 231 266 2,000 1,800 Climbing Tampa TRACON
05:42PM 27.8000 -82.7167 221° Southwest 248 285 4,500 2,700 Climbing Tampa TRACON
05:43PM 27.8000 -82.8000 270° West 237 273 7,500 2,520 Climbing Tampa TRACON
05:44PM 27.8667 -82.8000 360° North 299 344 9,600 1,920 Climbing Tampa TRACON
05:45PM 27.9333 -82.7667 24° Northeast 319 367 11,200 1,560 Climbing Tampa TRACON
05:52PM 28.6453 -82.6208 North 429 494 22,000 1,620 Climbing FlightAware ADS-B (KMCO)
05:54PM 28.9914 -82.6083 North 432 497 27,200 1,740 Climbing FlightAware ADS-B (KMCO)
05:55PM 29.0673 -82.6055 North 431 496 28,100 1,140 Climbing FlightAware ADS-B (KMCO)
05:56PM 29.1998 -82.6008 North 441 507 29,200 900 Climbing FlightAware ADS-B (KMCO)
05:57PM 29.3036 -82.5972 North 424 488 30,000 960 Climbing Jacksonville Center
05:58PM 29.4289 -82.5922 North 430 495 31,100 960 Climbing Jacksonville Center
06:04PM 30.2009 -82.5641 North 444 511 37,000 840 Climbing FlightAware ADS-B (KMCO)
06:05PM 30.2975 -82.5631 North 442 509 37,000  Level Jacksonville Center
06:06PM 30.4186 -82.5578 North 436 502 37,000 -60 Level Jacksonville Center
06:07PM 30.5417 -82.5406 North 436 502 36,900 -60 Descending Jacksonville Center
06:08PM 30.6606 -82.4942 19° North 446 513 36,900  Level Jacksonville Center
06:09PM 30.7794 -82.4478 19° North 453 521 37,000  Climbing Jacksonville Center
06:10PM 30.9003 -82.4011 18° North 458 527 37,000  Level Jacksonville Center
06:11PM 31.0211 -82.3544 18° North 458 527 37,000  Level Jacksonville Center
06:12PM 31.1400 -82.3053 19° North 458 527 37,000  Level Jacksonville Center
06:13PM 31.2608 -82.2583 18° North 458 527 37,000  Level Jacksonville Center
06:14PM 31.3817 -82.2111 18° North 453 521 37,000  Level Jacksonville Center
06:15PM 31.5025 -82.1617 19° North 458 527 37,000  Level Jacksonville Center
06:16PM 31.6358 -82.1069 19° North 458 527 37,000  Level Jacksonville Center
06:17PM 31.7567 -82.0569 19° North 458 527 37,000  Level Jacksonville Center
06:18PM 31.8669 -82.0119 19° North 458 527 37,000  Level Jacksonville Center
06:19PM 32.0044 -81.9592 18° North 464 534 37,000  Level Jacksonville Center
06:20PM 32.1250 -81.8967 24° Northeast 464 534 37,000  Level Jacksonville Center
06:21PM 32.2353 -81.8464 21° North 469 540 37,000  Level Jacksonville Center
06:22PM 32.3683 -81.7833 22° Northeast 469 540 37,000  Level Jacksonville Center
06:23PM 32.4806 -81.7303 22° Northeast 469 540 37,000  Level Jacksonville Center
06:24PM 32.6136 -81.6644 23° Northeast 475 547 37,000  Level Jacksonville Center
06:25PM 32.7236 -81.6111 22° Northeast 470 541 37,000  Level Jacksonville Center
06:26PM 32.8464 -81.5525 22° Northeast 475 547 37,000  Level Jacksonville Center
06:27PM 32.9689 -81.4911 23° Northeast 475 547 37,000  Level Jacksonville Center
06:28PM 33.0911 -81.4322 22° Northeast 475 547 37,000  Level Jacksonville Center
06:29PM 33.2136 -81.3731 22° Northeast 470 541 37,000  Level Jacksonville Center
06:31PM 33.4703 -81.2447 23° Northeast 468 539 37,000  Level Atlanta Center
06:36PM 34.0823 -80.9460 22° Northeast 486 559 37,000  Level FlightAware ADS-B (KCDN)
06:36PM 34.1559 -80.9105 22° Northeast 487 560 37,000  Level FlightAware ADS-B (KCDN)
06:37PM 34.2710 -80.8548 22° Northeast 486 559 37,000  Level FlightAware ADS-B (KCDN)
06:38PM 34.3802 -80.8021 22° Northeast 484 557 37,000  Level FlightAware ADS-B (KCDN)
06:39PM 34.4686 -80.7633 22° Northeast 486 559 37,000  Level Atlanta Center
06:40PM 34.5922 -80.7056 21° North 481 554 37,000  Level Atlanta Center
06:41PM 34.7175 -80.6375 24° Northeast 481 554 37,000  Level Atlanta Center
06:42PM 34.8433 -80.5792 21° North 481 554 37,000  Level Atlanta Center
06:43PM 34.9583 -80.5211 22° Northeast 488 562 37,000  Level Atlanta Center
06:44PM 35.0839 -80.4600 22° Northeast 488 562 37,000  Level Atlanta Center
06:45PM 35.2094 -80.3961 23° Northeast 488 562 37,000  Level Atlanta Center
06:46PM 35.3347 -80.3319 23° Northeast 488 562 37,000  Level Atlanta Center
06:47PM 35.5339 -80.2322 22° Northeast 489 563 37,000 -180 Level Washington Center
06:48PM 35.6617 -80.1681 22° Northeast 489 563 36,600 -780 Descending Washington Center
06:49PM 35.7872 -80.1036 23° Northeast 482 555 35,500 -900 Descending Washington Center
06:50PM 35.9167 -80.0469 20° North 482 555 34,900 -1,200 Descending Washington Center
06:51PM 36.0400 -79.9819 23° Northeast 482 555 33,100 -960 Descending Washington Center
06:52PM 36.1603 -79.8911 31° Northeast 482 555 33,000 -60 Descending Washington Center
06:53PM 36.2781 -79.8072 30° Northeast 487 560 33,000  Level Washington Center
06:54PM 36.3903 -79.7539 21° North 485 558 33,000  Level Washington Center
06:55PM 36.5303 -79.6889 20° North 473 544 33,000  Level Washington Center
06:56PM 36.6556 -79.6283 21° North 478 550 33,000  Level Washington Center
06:57PM 36.7847 -79.5678 21° North 478 550 33,000  Level Washington Center
06:58PM 36.9119 -79.5067 21° North 483 556 33,000  Level Washington Center
06:59PM 37.0286 -79.4500 21° North 483 556 33,000  Level Washington Center
07:00PM 37.1558 -79.3861 22° Northeast 483 556 33,000  Level Washington Center
07:01PM 37.2872 -79.3247 20° North 483 556 33,000  Level Washington Center
07:02PM 37.4311 -79.2561 21° North 493 567 33,000  Level Washington Center
07:03PM 37.5475 -79.1986 21° North 501 577 33,000  Level Washington Center
07:04PM 37.6808 -79.1342 21° North 501 577 33,000  Level Washington Center
07:05PM 37.8100 -79.0719 21° North 496 571 33,000  Level Washington Center
07:06PM 37.9389 -79.0094 21° North 496 571 33,000  Level Washington Center
07:07PM 38.0808 -78.9394 21° North 496 571 33,000  Level Washington Center
07:08PM 38.2117 -78.8767 21° North 496 571 33,000  Level Washington Center
07:09PM 38.3239 -78.8181 22° Northeast 491 565 33,000  Level Washington Center
07:16PM 39.2434 -78.3504 21° North 505 581 33,000  Level FlightAware ADS-B (KDAA)
07:17PM 39.3073 -78.3176 21° North 505 581 33,000  Level FlightAware ADS-B (KDAA)
07:17PM 39.3174 -78.3124 21° North 505 581 33,000  Level FlightAware ADS-B (KDAA)
07:22PM 39.5823 -78.1657 23° Northeast 512 589 33,000  Level FlightAware ADS-B (KPHL)
07:23PM 40.0564 -77.9014 23° Northeast 512 589 33,000 -900 Level New York Center
07:27PM 40.5610 -77.4216 21° North 497 572 28,600 -900 Descending FlightAware ADS-B (KPHL)
07:32PM 41.1492 -77.1253 21° North 463 533 24,900 -840 Descending FlightAware ADS-B (KPHL)
07:32PM 41.2082 -77.0954 21° North 457 526 24,400 -660 Descending FlightAware ADS-B (KPHL)
07:35PM 41.4860 -76.9540 21° North 445 512 23,000 -480 Descending FlightAware ADS-B (VOML / IXE)
07:36PM 41.5280 -76.9320 21° North 445 512 23,000  Level FlightAware ADS-B (VOML / IXE)
07:37PM 41.5870 -76.9020 21° North 441 507 23,000  Level FlightAware ADS-B (VOML / IXE)
07:38PM 41.6010 -76.8950 21° North 441 507 23,000 -840 Level FlightAware ADS-B (VOML / IXE)
07:39PM 41.7550 -76.8150 21° North 446 513 21,600 -1,740 Descending FlightAware ADS-B (VOML / IXE)
07:40PM 41.8940 -76.7430 21° North 430 495 19,500 -1,620 Descending FlightAware ADS-B (VOML / IXE)
07:41PM 41.9110 -76.7340 21° North 430 495 19,300 -1,980 Descending FlightAware ADS-B (VOML / IXE)
07:43PM 42.3710 -76.4920 21° North 376 433 13,300 -1,980 Descending FlightAware ADS-B (VOML / IXE)
07:45PM 42.4490 -76.4520 21° North 377 434 11,600 -780 Descending FlightAware ADS-B (VOML / IXE)
07:46PM 42.4780 -76.4360 21° North 369 425 11,300 -600 Descending FlightAware ADS-B (VOML / IXE)
07:46PM 42.7206 -76.3600 21° North 350 403 10,600 -1,560 Descending Boston Center
07:47PM 42.7769 -76.3519 North 314 361 9,400 -2,100 Descending Boston Center
07:47PM 42.8081 -76.3489 North 325 374 8,500 -2,100 Descending Boston Center
07:48PM 42.8625 -76.3411 North 301 346 7,300 -1,680 Descending Boston Center
07:48PM 42.8864 -76.3378 North 309 356 6,800 -2,100 Descending Boston Center
07:49PM 42.9503 -76.3283 North 292 336 5,300 -1,620 Descending Boston Center
07:49PM 42.9672 -76.3264 North 299 344 5,100 -720 Descending Boston Center
07:50PM 43.0247 -76.3172 North 260 299 4,600 -600 Descending Boston Center
07:50PM 43.0414 -76.3158 North 282 325 4,500 -720 Descending Boston Center
07:51PM 43.0908 -76.3061 North 235 270 3,900 -1,320 Descending Boston Center
07:51PM 43.1211 -76.3036 North 259 298 3,200 -1,200 Descending Boston Center
07:52PM 43.1556 -76.3033 360° North 225 259 2,700 -900 Descending Boston Center
07:52PM 43.1792 -76.2964 12° North 241 277 2,300 -720 Descending Boston Center
07:53PM 43.1819 -76.2619 84° East 147 169 2,000 -300 Descending Boston Center
07:53PM 43.1781 -76.2453 108° East 173 199 2,000  Level Boston Center
07:54PM 43.1647 -76.2128 119° Southeast 124 143 2,000 -300 Level Boston Center
07:55PM 43.1617 -76.1969 105° East 148 170 1,700 -720 Descending Boston Center
07:55PM 43.1539 -76.1625 107° East 135 155 1,300 -540 Descending Boston Center
07:55PM 43.1497 -76.1514 117° Southeast 138 159 1,200 -600 Descending Boston Center
07:56PM 43.1317 -76.1292 138° Southeast 130 150 800 -720 Descending Boston Center
07:57PM 43.1247 -76.1156 125° Southeast 130 150 500 -660 Descending Boston Center